[[{"header":{"parameterUnit":"m.s-1","parameterCategory":1,"la1":30.2991,"la2":30.254,"lo1":-89.0895,"lo2":-89.0444,"dy":0.0017,"dx":0.0017,"nx":28,"ny":28,"refTime":"2023-09-29T21:00:00:Z","depth":0,"parameterNumber":2,"parameterNumberName":"U-component_of_WINDS"},"data":[0,0,0,0,0,0,0,0,0,0,0,0,0,0,0,0,0,0,0,0,0,0,0,0,0,0,0,0,0,0,0,0,0,0,0,0,0,0,0,0,0,0,0,0,0,0,0,0,0,0,0,0,0,0,0,0,0,0,-3.7779,-3.7778,0,-3.7721,-3.772,-3.7719,-3.76,-3.7597,-3.7595,-3.7592,-3.7536,-3.7536,-3.7537,0,0,0,0,0,0,0,0,0,0,0,0,0,-3.779,-3.779,-3.7779,-3.7778,-3.7777,-3.7721,-3.772,-3.7719,-3.76,-3.7597,-3.7594,-3.7591,-3.7535,-3.7536,-3.7537,0,0,0,0,0,0,0,0,0,0,0,0,0,-3.7764,-3.7791,-3.7779,-3.7711,-3.7704,-3.7721,-3.772,-3.7719,-3.7601,-3.7597,-3.7593,-3.759,-3.7535,-3.7536,-3.7537,-3.7616,0,0,-3.754,-3.7541,0,0,0,0,0,0,0,0,-3.7766,-3.7764,-3.7722,-3.7716,-3.7708,-3.7664,-3.7703,-3.7685,-3.7601,-3.764,-3.7592,-3.7588,-3.7581,-3.7578,-3.7575,-3.7613,-3.7611,-3.7541,-3.7541,-3.7542,-3.7542,0,0,0,0,0,0,0,-3.7768,-3.7766,-3.7756,-3.7721,-3.7713,-3.7685,-3.7677,-3.7699,-3.7632,-3.7636,-3.7628,-3.7622,-3.7577,-3.7575,-3.7573,-3.761,-3.7541,-3.7541,-3.7542,-3.7543,-3.7714,-3.7718,0,0,0,0,0,0,-3.7779,-3.7768,-3.7758,-3.7754,-3.7729,-3.7687,-3.7679,-3.7682,-3.7631,-3.762,-3.7625,-3.7617,-3.7575,-3.7572,-3.7571,-3.7663,-3.7542,-3.7543,-3.7543,-3.771,-3.7715,-3.7719,0,0,0,0,0,0,-3.778,-3.7779,-3.776,-3.7759,-3.7754,-3.7691,-3.7695,-3.7682,-3.768,-3.7623,-3.761,-3.7635,-3.7572,-3.7569,-3.7606,-3.7659,-3.7543,-3.7544,-3.7706,-3.7712,-3.7717,-3.7846,0,0,0,0,0,0,-3.778,-3.778,-3.7808,-3.776,-3.7755,-3.7796,-3.7698,-3.7684,-3.7682,-3.767,-3.7629,-3.7618,-3.7569,-3.7605,-3.7608,-3.7659,-3.7545,-3.7701,-3.7708,-3.7715,-3.7837,-3.7856,-3.7872,0,0,0,0,0,-3.7781,-3.7847,-3.781,-3.781,-3.7789,-3.7799,-3.7796,-3.7737,-3.7687,-3.7716,-3.7679,-3.762,-3.7653,-3.761,-3.7612,-3.7664,-3.7697,-3.7706,-3.7715,-3.7829,-3.7852,-3.7871,0,0,0,0,0,0,-3.7903,-3.7839,-3.7798,-3.785,-3.7831,-3.7779,-3.7813,-3.7762,-3.7758,-3.7747,-3.7674,-3.7666,-3.7714,-3.7692,-3.7646,-3.7739,-3.7666,-3.7675,-3.7752,-3.7774,-3.7791,-3.7796,-3.7546,0,0,0,0,0,-3.7936,-3.7949,-3.7892,-3.7944,-3.7936,-3.7877,-3.7879,-3.7835,-3.7813,-3.7805,-3.7771,-3.7752,-3.7759,-3.7764,-3.7767,-3.7833,-3.7824,-3.7869,-3.7887,-3.7901,-3.7911,-3.7948,-3.7969,-3.7748,-3.7748,-3.7748,0,0,-3.8004,-3.7971,-3.7983,-3.7967,-3.7947,-3.7965,-3.7871,-3.7892,-3.7904,-3.7808,-3.7842,-3.7817,-3.7791,-3.7845,-3.7866,-3.7828,-3.797,-3.7913,-3.7925,-3.7926,-3.7959,-3.7981,-3.7999,-3.7754,-3.7753,-3.7752,0,0,-3.8137,-3.8112,-3.8154,-3.8136,-3.8107,-3.8068,-3.8078,-3.8034,-3.8014,-3.8046,-3.7975,-3.799,-3.8001,-3.7987,-3.7982,-3.8113,-3.8059,-3.8115,-3.8207,-3.8244,-3.8262,-3.8277,-3.8327,-3.8345,-3.8125,-3.8125,-3.8125,0,-3.8226,-3.8248,-3.8182,-3.8208,-3.8205,-3.8118,-3.8161,-3.8147,-3.8121,-3.8122,-3.8078,-3.8093,-3.807,-3.812,-3.8153,-3.815,-3.8161,-3.8121,-3.8264,-3.8279,-3.8292,-3.8339,-3.8358,-3.8132,-3.8132,-3.8131,-3.813,0,-3.836,-3.8376,-3.8413,-3.8391,-3.8391,-3.8426,-3.8367,-3.8376,-3.8332,-3.8298,-3.8334,-3.8303,-3.8299,-3.8307,-3.8265,-3.8353,-3.8331,-3.8277,-3.8202,-3.8321,-3.8365,-3.8382,-3.8143,-3.814,-3.8138,-3.8136,0,0,-3.8569,-3.8511,-3.8526,-3.8516,-3.8479,-3.8491,-3.8523,-3.8519,-3.8529,-3.8514,-3.8541,-3.8554,-3.8505,-3.8499,-3.8454,-3.8486,-3.8597,-3.8429,-3.8427,-3.8464,-3.8696,-3.8739,-3.8761,-3.856,-3.8563,-3.8566,-3.87,0,-3.8696,-3.8747,-3.8689,-3.8753,-3.8769,-3.8688,-3.8716,-3.8698,-3.8667,-3.8677,-3.8643,-3.8655,-3.8587,-3.8584,-3.8611,-3.8578,-3.8643,-3.8566,-3.8587,-3.8589,-3.8599,-3.8783,-3.8828,-3.8956,-3.8716,-3.8718,-3.872,0,-3.8851,-3.8845,-3.8911,-3.8872,-3.8877,-3.8903,-3.8897,-3.8906,-3.8885,-3.886,-3.8855,-3.8801,-3.8832,-3.8758,-3.8801,-3.875,-3.8755,-3.874,-3.8744,-3.8746,-3.8664,-3.8793,-3.8994,-3.9015,-3.8746,-3.8744,-3.8742,0,-3.9002,-3.9009,-3.905,-3.9044,-3.8999,-3.902,-3.9003,-3.8977,-3.898,-3.8974,-3.8975,-3.8974,-3.8974,-3.8974,-3.8923,-3.8873,-3.8974,-3.8894,-3.8957,-3.8959,-3.8984,-3.8984,-3.9193,-3.8983,-3.8982,-3.8982,-3.8982,0,-3.9152,-3.9196,-3.9118,-3.9143,-3.9191,-3.9125,-3.9175,-3.9149,-3.9128,-3.9149,-3.9077,-3.9099,-3.9027,-3.9042,-3.9001,-3.9046,-3.9045,-3.9028,-3.9018,-3.9036,-3.9039,-3.9041,-3.9032,-3.8987,-3.8986,-3.8985,-3.8984,0,-3.9329,-3.9277,-3.9317,-3.9272,-3.9262,-3.93,-3.9262,-3.9285,-3.9249,-3.9277,-3.928,-3.9225,-3.9239,-3.9186,-3.9191,-3.9164,-3.9231,-3.9203,-3.9238,-3.9231,-3.9299,-3.9295,-3.9518,-3.9546,-3.9316,-3.9318,-3.932,0,-3.9429,-3.9461,-3.942,-3.9429,-3.9415,-3.943,-3.9432,-3.9369,-3.9375,-3.9354,-3.9381,-3.9388,-3.9391,-3.9417,-3.9379,-3.9383,-3.9357,-3.9435,-3.9357,-3.9377,-3.9363,-3.9363,-3.9367,-3.9453,-3.9455,-3.9458,-3.946,0,-3.9614,-3.9588,-3.9594,-3.9592,-3.9597,-3.9593,-3.9583,-3.9595,-3.9527,-3.9538,-3.9551,-3.9553,-3.9558,-3.9568,-3.9565,-3.9548,-3.9495,-3.9484,-3.95,-3.9521,-3.9541,-3.9535,-3.9286,-3.948,-3.9478,-3.9476,-3.9475,-3.9474,-3.9758,-3.9784,-3.976,-3.977,-3.9757,-3.9751,-3.9771,-3.9739,-3.9748,-3.9748,-3.971,-3.9732,-3.9711,-3.9701,-3.969,-3.9707,-3.9671,-3.9692,-3.9698,-3.9706,-3.9719,-3.9536,-3.9706,-3.9705,-3.9705,-3.9704,-3.9704,0,-3.9943,-3.9923,-3.9933,-3.9923,-3.9932,-3.9879,-3.9867,-3.9878,-3.9898,-3.9883,-3.9888,-3.9905,-3.9914,-3.9877,-3.9882,-3.9904,-3.988,-3.9907,-3.9907,-3.9905,-3.9749,-3.9737,-3.9927,-3.9927,-3.9927,-3.9927,-3.9927,-3.9927,-4.004,-4.0083,-4.0054,-4.0091,-4.0071,-4.0091,-4.009,-4.0084,-4.0073,-4.0095,-4.0103,-4.0078,-4.0056,-4.0059,-4.0066,-4.0055,-4.0062,-4.0099,-4.0081,-3.9937,-3.9915,-3.9894,-3.9883,-4.01,-4.0101,-4.0235,-4.0236,-4.0237]},{"header":{"parameterUnit":"m.s-1","parameterCategory":1,"la1":30.2991,"la2":30.254,"lo1":-89.0895,"lo2":-89.0444,"dy":0.0017,"dx":0.0017,"nx":28,"ny":28,"refTime":"2023-09-29T21:00:00:Z","depth":0,"parameterNumber":3,"parameterNumberName":"V-component_of_WINDS"},"data":[0,0,0,0,0,0,0,0,0,0,0,0,0,0,0,0,0,0,0,0,0,0,0,0,0,0,0,0,0,0,0,0,0,0,0,0,0,0,0,0,0,0,0,0,0,0,0,0,0,0,0,0,0,0,0,0,0,0,1.1313,1.1313,0,1.1244,1.1243,1.1242,1.1208,1.1208,1.1208,1.1208,1.113,1.1128,1.1125,0,0,0,0,0,0,0,0,0,0,0,0,0,1.141,1.1408,1.1314,1.1313,1.1312,1.1244,1.1243,1.1242,1.1208,1.1208,1.1208,1.1208,1.113,1.1128,1.1125,0,0,0,0,0,0,0,0,0,0,0,0,0,1.1357,1.1408,1.1314,1.1287,1.1284,1.1244,1.1243,1.1242,1.1208,1.1208,1.1208,1.1208,1.1131,1.1128,1.1125,1.1104,0,0,1.1115,1.1114,0,0,0,0,0,0,0,0,1.136,1.1353,1.1292,1.1289,1.1285,1.1235,1.1248,1.1196,1.1208,1.1237,1.1208,1.1208,1.1164,1.1158,1.1145,1.1101,1.1097,1.1115,1.1113,1.1112,1.1111,0,0,0,0,0,0,0,1.1363,1.1356,1.1286,1.1291,1.1287,1.1276,1.1269,1.1238,1.1201,1.1234,1.1232,1.1224,1.1162,1.1148,1.1143,1.1096,1.1115,1.1112,1.111,1.1109,1.103,1.103,0,0,0,0,0,0,1.1372,1.1359,1.1288,1.1284,1.1324,1.1274,1.1266,1.1251,1.1201,1.1194,1.1224,1.1223,1.1153,1.1147,1.114,1.1112,1.1112,1.1109,1.1107,1.103,1.103,1.103,0,0,0,0,0,0,1.1375,1.1366,1.1291,1.1321,1.131,1.1273,1.1256,1.125,1.1235,1.1194,1.1186,1.1217,1.1153,1.1144,1.1114,1.1109,1.1107,1.1104,1.1031,1.103,1.103,1.1057,0,0,0,0,0,0,1.1378,1.1367,1.1361,1.1321,1.1309,1.1268,1.1256,1.1248,1.1231,1.1228,1.1185,1.1178,1.1153,1.1119,1.1111,1.1104,1.1102,1.1031,1.1031,1.103,1.1056,1.1058,1.1059,0,0,0,0,0,1.1381,1.137,1.1361,1.1353,1.1301,1.1268,1.1261,1.1235,1.1231,1.1223,1.1196,1.1179,1.1111,1.1116,1.1106,1.1099,1.1031,1.1031,1.103,1.1056,1.1057,1.1059,0,0,0,0,0,0,1.1408,1.1364,1.1354,1.133,1.1303,1.1263,1.1252,1.1237,1.1209,1.1208,1.1174,1.1164,1.1136,1.1114,1.1121,1.1076,1.1069,1.1067,1.1092,1.1093,1.1094,1.11,1.1099,0,0,0,0,0,1.1412,1.1391,1.1353,1.1335,1.1323,1.129,1.1275,1.1257,1.1227,1.1215,1.1186,1.1155,1.1127,1.1108,1.108,1.1053,1.1042,1.1043,1.1044,1.1046,1.1044,1.1027,1.1027,1.1029,1.1029,1.1029,0,0,1.1418,1.1391,1.138,1.134,1.1318,1.1295,1.128,1.1257,1.124,1.121,1.1181,1.1158,1.1121,1.1092,1.1078,1.1073,1.1041,1.1045,1.1046,1.1044,1.1026,1.1026,1.1026,1.1028,1.1028,1.1029,0,0,1.1418,1.1397,1.1379,1.1357,1.1324,1.1302,1.1298,1.126,1.1244,1.1214,1.1192,1.1169,1.1121,1.1096,1.1077,1.1067,1.105,1.1058,1.1065,1.1048,1.1048,1.1048,1.1044,1.1043,1.1057,1.1057,1.1057,0,1.1429,1.1397,1.1372,1.135,1.1333,1.1308,1.1289,1.1267,1.1226,1.1213,1.1209,1.1148,1.1122,1.1086,1.1084,1.107,1.1062,1.1063,1.1051,1.105,1.1049,1.1045,1.1044,1.1058,1.1058,1.1058,1.1058,0,1.1412,1.139,1.138,1.1343,1.1324,1.1303,1.1273,1.1256,1.124,1.1218,1.1186,1.1154,1.1118,1.1109,1.1091,1.107,1.1068,1.1058,1.105,1.1051,1.1046,1.1044,1.106,1.106,1.1059,1.1059,0,0,1.1427,1.1377,1.1374,1.1356,1.1318,1.1299,1.1276,1.1244,1.123,1.1202,1.1181,1.1141,1.1132,1.111,1.1089,1.1075,1.1069,1.1066,1.1065,1.1067,1.1042,1.105,1.1049,1.1058,1.1057,1.1057,1.1045,0,1.1421,1.1383,1.136,1.133,1.1308,1.1284,1.1264,1.1237,1.1216,1.1192,1.1167,1.1139,1.1129,1.1116,1.1101,1.1073,1.1063,1.1073,1.1036,1.1035,1.1046,1.1046,1.1055,1.1045,1.1043,1.1043,1.1043,0,1.141,1.1385,1.1354,1.1318,1.1307,1.1291,1.1259,1.1237,1.1205,1.119,1.1167,1.1146,1.1119,1.1114,1.1075,1.1083,1.1066,1.105,1.1048,1.1043,1.1039,1.1041,1.1042,1.104,1.1039,1.104,1.104,0,1.1423,1.1381,1.1357,1.1343,1.13,1.1289,1.127,1.1238,1.122,1.1191,1.1179,1.1147,1.1129,1.1103,1.1073,1.1072,1.1037,1.1029,1.1022,1.1023,1.1015,1.1016,1.1013,1.1005,1.1005,1.1005,1.1005,0,1.1419,1.1401,1.1363,1.1348,1.1326,1.1298,1.1277,1.1255,1.1227,1.1206,1.1182,1.1162,1.1125,1.1099,1.1075,1.1046,1.1038,1.1024,1.1018,1.1026,1.1028,1.1014,1.1014,1.1005,1.1005,1.1005,1.1005,0,1.143,1.1404,1.1377,1.1339,1.1329,1.1314,1.1281,1.1264,1.1242,1.1215,1.1207,1.1171,1.114,1.1108,1.1065,1.1049,1.102,1.1012,1.1032,1.1029,1.1023,1.1024,1.101,1.1007,1.1002,1.1002,1.1003,0,1.1429,1.1415,1.1376,1.1362,1.1344,1.1321,1.1303,1.1274,1.1256,1.1218,1.1205,1.1173,1.1146,1.1097,1.1065,1.1032,1.1022,1.102,1.1017,1.1026,1.1021,1.1023,1.1021,1.1021,1.1021,1.1021,1.1022,0,1.143,1.1418,1.1395,1.1366,1.1346,1.1322,1.1297,1.1285,1.1251,1.1231,1.1201,1.118,1.1137,1.1105,1.1068,1.1045,1.1027,1.1023,1.1019,1.1027,1.1039,1.1032,1.1035,1.1023,1.1023,1.1023,1.1023,1.1023,1.1434,1.1421,1.1392,1.1366,1.1344,1.1321,1.1304,1.128,1.1255,1.122,1.1203,1.1172,1.1139,1.1088,1.1066,1.104,1.1035,1.103,1.1028,1.1027,1.1029,1.1044,1.1033,1.1033,1.1033,1.1033,1.1033,0,1.1434,1.1414,1.1391,1.1357,1.1336,1.1324,1.1295,1.1277,1.1252,1.1223,1.1198,1.1162,1.113,1.1096,1.1062,1.1047,1.1038,1.1039,1.104,1.1035,1.1036,1.1042,1.1047,1.1047,1.1047,1.1047,1.1047,1.1047,1.1431,1.1407,1.1391,1.1355,1.1335,1.1306,1.1291,1.1268,1.1246,1.1208,1.1183,1.1162,1.113,1.1094,1.1064,1.1054,1.1042,1.1046,1.1034,1.1036,1.1034,1.1033,1.1039,1.1044,1.1044,1.1035,1.1035,1.1034]}]]